Flag for Niger Weather past 2 weeks in Niamey, Niger

Now
97 °F

Sunny.


Feels Like: 92 °F
Forecast: 68 / 100 °F
Wind: 2 mph from North

Location: Niamey-Aero

Current Time: Feb 1, 2015 at 4:52:59 PM

Latest Report: Feb 1, 2015 at 4:00 PM


Visibility: 10 mi

Pressure: 29.80 "Hg

Humidity: 4%

Dew point: 10 °F

Location of NiameyLocation

Historic Weather in Niamey — Graph

°F

Niamey temperature yesterday

Maximum temperature yesterday: 97 °F (at 5:00 PM)
Minimum temperature yesterday: 64 °F (at 6:00 AM)
Average temperature yesterday: 79 °F

Past Weeks' High & Low Weather Summary

 TemperatureHumidityPressure
High97 °F (Jan 22, 2:00 PM)32% (Jan 20, 8:00 AM)30.07 "Hg (Jan 20, 8:00 AM)
Low59 °F (Jan 18, 7:00 AM)4% (Jan 25, 12:00 PM)29.80 "Hg (Jan 24, 3:00 PM)
Average78 °F13%29.92 "Hg
* Reported Jan 17 4:00 PM — Feb 1 3:00 PM, Niamey, Weather by CustomWeather, © 2014

Note: Actual official high and low records may vary slightly from our data, if they occured in-between our weather recording intervals... More about our weather records

Advertising

Niamey weather history for previous 24 hours

 ConditionsComfort  
Time TempWeatherWind HumidityBarometerVisibility
3:00 PM
Feb 1
97 °FPassing clouds.5 mph4%29.83 "HgN/A
2:00 PM95 °FSunny.3 mph4%29.86 "Hg10 mi
1:00 PM93 °FPassing clouds.6 mph5%29.89 "HgN/A
12:00 PM90 °FPassing clouds.8 mph5%29.92 "HgN/A
11:00 AM84 °FSunny.12 mph7%29.95 "Hg10 mi
10:00 AM79 °FClear.8 mph10%29.95 "Hg5 mi
9:00 AM75 °FClear.1 mph13%29.95 "Hg4 mi
8:00 AM66 °FClear.5 mph21%29.92 "Hg4 mi
7:00 AM64 °FClear.1 mph22%29.89 "Hg4 mi
6:00 AM66 °FClear.2 mph19%29.89 "Hg5 mi
5:00 AM66 °FClear.1 mph19%29.89 "Hg5 mi
4:00 AM70 °FClear.3 mph16%29.89 "Hg5 mi
3:00 AM72 °FClear.5 mph14%29.89 "Hg5 mi
2:00 AM70 °FClear.1 mph17%29.92 "Hg5 mi
1:00 AM73 °FClear.5 mph15%29.92 "Hg5 mi
12:00 AM75 °FClear.6 mph16%29.92 "Hg5 mi
11:00 PM
Jan 31
77 °FClear.5 mph15%29.95 "Hg5 mi
10:00 PM79 °FClear.3 mph15%29.92 "Hg5 mi
9:00 PM84 °FClear.3 mph10%29.92 "Hg10 mi
8:00 PM86 °FClear.3 mph9%29.89 "Hg10 mi
7:00 PM90 °FClear.5 mph7%29.86 "Hg4 mi
6:00 PM93 °FSunny.3 mph6%29.86 "Hg10 mi
5:00 PM97 °FSunny.2 mph5%29.86 "Hg10 mi
4:00 PM95 °FSunny.2 mph5%29.86 "Hg10 mi
Weather by CustomWeather, © 2014

See weather overviewHow to use our weather pages